• In Czech Republic
  • List of Countries
  • For 7 days
  • Water Temperature
  • Satellite Maps
  • Weather Map
  • Weather Widgets
  • user-avatar
    Login

    Hourly Weather Malanje

    Today, 22 October, Sunday

    Time Temperature Precipitation Wind Pressure Humidity
    00:00 +22°C° 0.5 mm 1 mps 665 mmHg 88%
    01:00 +20°C° 0 mm 2 mps 666 mmHg 93%
    02:00 +21°C° 2.3 mm 1 mps 666 mmHg 93%
    03:00 +21°C° 2.3 mm 1 mps 666 mmHg 94%
    04:00 +21°C° 2.3 mm 1 mps 666 mmHg 94%
    05:00 +21°C° 3.3 mm 1 mps 666 mmHg 94%
    06:00 +21°C° 3.3 mm 1 mps 667 mmHg 94%
    07:00 +21°C° 0 mm 1 mps 668 mmHg 94%
    08:00 +22°C° 1.8 mm 1 mps 667 mmHg 92%
    09:00 +22°C° 1.8 mm 1 mps 667 mmHg 91%
    10:00 +22°C° 1.8 mm 1 mps 667 mmHg 90%
    11:00 +23°C° 0.9 mm 1 mps 667 mmHg 88%
    12:00 +23°C° 0.9 mm 1 mps 666 mmHg 87%
    13:00 +23°C° 0 mm 1 mps 666 mmHg 86%
    14:00 +24°C° 0.1 mm 1 mps 666 mmHg 81%
    15:00 +25°C° 0.1 mm 1 mps 665 mmHg 75%
    16:00 +26°C° 0.1 mm 1 mps 665 mmHg 70%
    17:00 +25°C° 0 mm 1 mps 665 mmHg 74%
    18:00 +23°C° 0 mm 1 mps 665 mmHg 79%
    19:00 +20°C° 0 mm 0 mps 665 mmHg 83%
    20:00 +20°C° 0 mm 0 mps 665 mmHg 83%
    21:00 +20°C° 0 mm 0 mps 665 mmHg 84%
    22:00 +19°C° 0 mm 0 mps 665 mmHg 84%
    23:00 +19°C° 0 mm 0 mps 665 mmHg 85%

    Tomorrow, 23 October, Monday

    Time Temperature Precipitation Wind Pressure Humidity
    00:00 +19°C° 0 mm 0 mps 665 mmHg 86%
    01:00 +19°C° 0 mm 0 mps 664 mmHg 87%
    02:00 +18°C° 0 mm 0 mps 664 mmHg 89%
    03:00 +20°C° 0 mm 1 mps 664 mmHg 90%
    04:00 +20°C° 0 mm 1 mps 664 mmHg 91%
    05:00 +21°C° 0.3 mm 1 mps 665 mmHg 89%
    06:00 +21°C° 0.3 mm 1 mps 665 mmHg 87%
    07:00 +22°C° 0.3 mm 1 mps 666 mmHg 86%
    08:00 +25°C° 0 mm 1 mps 666 mmHg 74%
    09:00 +28°C° 0 mm 1 mps 667 mmHg 62%
    10:00 +31°C° 0 mm 1 mps 668 mmHg 50%
    11:00 +32°C° 0 mm 1 mps 667 mmHg 46%
    12:00 +34°C° 0 mm 2 mps 666 mmHg 41%
    13:00 +34°C° 0 mm 2 mps 666 mmHg 37%
    14:00 +32°C° 0 mm 2 mps 665 mmHg 40%
    15:00 +32°C° 0 mm 2 mps 665 mmHg 43%
    16:00 +31°C° 0 mm 1 mps 664 mmHg 46%
    17:00 +29°C° 0 mm 1 mps 664 mmHg 50%
    18:00 +28°C° 0 mm 1 mps 664 mmHg 55%
    19:00 +24°C° 0 mm 0 mps 664 mmHg 59%
    20:00 +24°C° 0 mm 0 mps 664 mmHg 61%
    21:00 +23°C° 0 mm 0 mps 664 mmHg 63%
    22:00 +24°C° 0 mm 1 mps 665 mmHg 65%
    23:00 +24°C° 0.1 mm 1 mps 664 mmHg 70%

    Day after tomorrow, 24 October, Tuesday

    Time Temperature Precipitation Wind Pressure Humidity
    00:00 +23°C° 0.1 mm 2 mps 664 mmHg 76%
    01:00 +23°C° 0.1 mm 2 mps 664 mmHg 81%
    02:00 +21°C° 0.2 mm 2 mps 664 mmHg 86%
    03:00 +21°C° 0.2 mm 2 mps 664 mmHg 90%
    04:00 +20°C° 0.2 mm 2 mps 663 mmHg 95%
    05:00 +20°C° 0.1 mm 2 mps 664 mmHg 94%
    06:00 +21°C° 0.1 mm 2 mps 664 mmHg 92%
    07:00 +21°C° 0.1 mm 2 mps 665 mmHg 91%
    08:00 +24°C° 0.1 mm 2 mps 666 mmHg 82%
    09:00 +26°C° 0.1 mm 2 mps 666 mmHg 73%
    10:00 +28°C° 0.1 mm 2 mps 667 mmHg 64%
    11:00 +30°C° 0.1 mm 1 mps 666 mmHg 57%
    12:00 +33°C° 0.1 mm 1 mps 666 mmHg 49%
    13:00 +35°C° 0.1 mm 1 mps 666 mmHg 41%
    14:00 +33°C° 0 mm 1 mps 665 mmHg 44%
    15:00 +32°C° 0 mm 1 mps 664 mmHg 47%
    16:00 +31°C° 0 mm 1 mps 664 mmHg 49%
    17:00 +29°C° 0.1 mm 1 mps 664 mmHg 56%
    18:00 +27°C° 0.1 mm 2 mps 664 mmHg 63%
    19:00 +25°C° 0.1 mm 2 mps 664 mmHg 69%
    20:00 +24°C° 1 mm 2 mps 665 mmHg 77%
    21:00 +24°C° 1 mm 2 mps 665 mmHg 84%
    22:00 +23°C° 1 mm 2 mps 666 mmHg 91%
    23:00 +21°C° 2 mm 3 mps 665 mmHg 92%

    25 October, Wednesday

    Time Temperature Precipitation Wind Pressure Humidity
    00:00 +21°C° 2 mm 3 mps 665 mmHg 92%
    01:00 +21°C° 2 mm 4 mps 665 mmHg 93%
    02:00 +21°C° 0 mm 3 mps 664 mmHg 94%
    03:00 +20°C° 0 mm 3 mps 664 mmHg 95%
    04:00 +20°C° 0 mm 2 mps 664 mmHg 95%
    05:00 +20°C° 0 mm 2 mps 664 mmHg 94%
    06:00 +21°C° 0 mm 2 mps 665 mmHg 93%
    07:00 +21°C° 0 mm 2 mps 666 mmHg 91%
    08:00 +24°C° 0 mm 2 mps 666 mmHg 84%
    09:00 +25°C° 0 mm 2 mps 666 mmHg 76%
    10:00 +27°C° 0 mm 2 mps 666 mmHg 69%
    11:00 +28°C° 0.1 mm 2 mps 666 mmHg 62%
    12:00 +30°C° 0.1 mm 2 mps 666 mmHg 56%
    13:00 +31°C° 0.1 mm 2 mps 665 mmHg 49%
    14:00 +31°C° 0 mm 2 mps 665 mmHg 49%
    15:00 +31°C° 0 mm 2 mps 665 mmHg 49%
    16:00 +31°C° 0 mm 2 mps 664 mmHg 50%
    17:00 +29°C° 0 mm 2 mps 664 mmHg 56%
    18:00 +27°C° 0 mm 2 mps 664 mmHg 62%
    19:00 +25°C° 0 mm 2 mps 664 mmHg 69%
    20:00 +25°C° 0 mm 2 mps 664 mmHg 72%
    21:00 +24°C° 0 mm 2 mps 664 mmHg 76%
    22:00 +22°C° 0 mm 3 mps 664 mmHg 80%
    23:00 +21°C° 0.1 mm 3 mps 664 mmHg 84%

    26 October, Thursday

    Time Temperature Precipitation Wind Pressure Humidity
    00:00 +21°C° 0.1 mm 3 mps 664 mmHg 87%
    01:00 +21°C° 0.1 mm 3 mps 664 mmHg 91%
    02:00 +20°C° 0.6 mm 3 mps 664 mmHg 92%
    03:00 +20°C° 0.6 mm 3 mps 664 mmHg 93%
    04:00 +20°C° 0.6 mm 3 mps 664 mmHg 94%
    05:00 +20°C° 0.1 mm 2 mps 665 mmHg 93%
    06:00 +20°C° 0.1 mm 2 mps 665 mmHg 92%
    07:00 +20°C° 0.1 mm 2 mps 666 mmHg 91%
    08:00 +24°C° 0.3 mm 2 mps 666 mmHg 81%
    09:00 +27°C° 0.3 mm 1 mps 667 mmHg 71%
    10:00 +29°C° 0.3 mm 1 mps 667 mmHg 60%
    11:00 +31°C° 0.2 mm 1 mps 667 mmHg 54%
    12:00 +32°C° 0.2 mm 1 mps 666 mmHg 48%
    13:00 +34°C° 0.2 mm 1 mps 666 mmHg 42%
    14:00 +33°C° 0 mm 1 mps 665 mmHg 45%
    15:00 +32°C° 0 mm 1 mps 664 mmHg 48%
    16:00 +31°C° 0 mm 1 mps 664 mmHg 51%
    17:00 +29°C° 0.2 mm 1 mps 664 mmHg 58%
    18:00 +27°C° 0.2 mm 1 mps 664 mmHg 64%
    19:00 +25°C° 0.2 mm 2 mps 664 mmHg 70%
    20:00 +24°C° 0.4 mm 2 mps 664 mmHg 75%
    21:00 +23°C° 0.4 mm 2 mps 664 mmHg 80%
    22:00 +21°C° 0.4 mm 3 mps 664 mmHg 85%
    23:00 +21°C° 0.6 mm 3 mps 664 mmHg 89%

    27 October, Friday

    Time Temperature Precipitation Wind Pressure Humidity
    00:00 +21°C° 0.6 mm 3 mps 664 mmHg 92%
    01:00 +20°C° 0.6 mm 3 mps 664 mmHg 95%
    02:00 +20°C° 0.2 mm 3 mps 664 mmHg 95%
    03:00 +20°C° 0.2 mm 3 mps 664 mmHg 95%
    04:00 +20°C° 0.2 mm 2 mps 664 mmHg 95%
    05:00 +20°C° 0.5 mm 2 mps 664 mmHg 94%
    06:00 +20°C° 0.5 mm 2 mps 665 mmHg 93%
    07:00 +20°C° 0.5 mm 2 mps 665 mmHg 92%
    08:00 +23°C° 0.4 mm 2 mps 665 mmHg 86%
    09:00 +24°C° 0.4 mm 1 mps 666 mmHg 79%
    10:00 +26°C° 0.4 mm 1 mps 666 mmHg 73%
    11:00 +27°C° 1 mm 1 mps 666 mmHg 68%
    12:00 +29°C° 1 mm 1 mps 665 mmHg 63%
    13:00 +30°C° 1 mm 1 mps 665 mmHg 58%
    14:00 +29°C° 2 mm 1 mps 664 mmHg 65%
    15:00 +27°C° 2 mm 1 mps 664 mmHg 71%
    16:00 +26°C° 2 mm 1 mps 664 mmHg 78%
    17:00 +25°C° 0.8 mm 1 mps 664 mmHg 82%
    18:00 +23°C° 0.8 mm 1 mps 664 mmHg 86%
    19:00 +22°C° 0.8 mm 1 mps 664 mmHg 90%
    20:00 +22°C° 0.4 mm 1 mps 664 mmHg 90%
    21:00 +22°C° 0.4 mm 1 mps 664 mmHg 90%
    22:00 +22°C° 0.4 mm 1 mps 665 mmHg 90%
    23:00 +21°C° 0.3 mm 1 mps 664 mmHg 92%
    Show more